Tracking 29892 objects as of 21-Nov-2024
HD Live streaming from Space Station
objects crossing your sky now

STARLINK-2407

Track STARLINK-2407 now!
10-day predictions
STARLINK-2407 is classified as:


NORAD ID: 47822
Int'l Code: 2021-018AM
Perigee: 553.1 km
Apogee: 555.5 km
Inclination: 53.1 °
Period: 95.6 minutes
Semi major axis: 6925 km
RCS: Unknown
Launch date: March 11, 2021
Source: United States (US)
Launch site: AIR FORCE EASTERN TEST RANGE (AFETR)
Your satellite tracking list
Your tracking list is empty




NASA's NSSDC Master Catalog

Two Line Element Set (TLE):
1 47822U 21018AM  24325.13794807  .00033286  00000-0  22425-2 0  9999
2 47822  53.0534 231.9531 0001740  95.8216 264.2971 15.06407714204936
Source of the keplerian elements: AFSPC